Location: *
(35.1500°N, 76.6700°W)
Time: 02:13:32
(UTC+00:00)

Cosmos 1908 - Pass Details

Date: 13 October 2019
Orbit: 511 x 532 km, 82.5° (Epoch: 17 November)

Event Time Altitude Azimuth Distance (km) Brightness Sun altitude
Rises 23:23:06 0° 158° (SSE) 2,661 6.6 -10.7°
Reaches altitude 10° 23:25:31 10° 144° (SE) 1,776 5.6 -11.2°
Maximum altitude 23:28:41 24° 90° (E) 1,127 4.3 -11.9°
Drops below altitude 10° 23:31:52 10° 36° (NE) 1,784 5.6 -12.5°
Sets 23:34:18 0° 22° (NNE) 2,676 6.6 -13.0°
